This is the latest recevied weather packets stored in our database for station/object DH5RAE-11. If no packets are shown the sender has not sent any weather packets the latest 10 day(s).
| Time | Temp. | Humidity | Pressure | Rain* | Wind** | Luminosity | Snow |
|---|---|---|---|---|---|---|---|
| 1787731086 | 17.22° C | 89% | 1021.8 hPa | 0 mm | - | - | - |
| 1787730346 | 17.22° C | 90% | 1021.8 hPa | 0 mm | - | - | - |
| 1787728939 | 16.11° C | 91% | 1021.6 hPa | 0 mm | - | - | - |
| 1787728202 | 16.11° C | 91% | 1021.5 hPa | 0 mm | - | - | - |
| 1787727602 | 15.56° C | 91% | 1021.4 hPa | 0 mm | - | - | - |
| 1787727001 | 15.56° C | 90% | 1021.4 hPa | 0 mm | - | - | - |
| 1787726401 | 15° C | 91% | 1021.4 hPa | 0 mm | - | - | - |
| 1787725801 | 15° C | 91% | 1021.4 hPa | 0 mm | - | - | - |
| 1787725200 | 14.44° C | 91% | 1021.2 hPa | 0 mm | - | - | - |
| 1787724394 | 13.89° C | 91% | 1021.2 hPa | 0 mm | - | - | - |
| 1787723793 | 12.78° C | 91% | 1021.2 hPa | 0 mm | - | - | - |
| 1787722918 | 12.78° C | 90% | 1021.2 hPa | 0 mm | - | - | - |
| 1787722317 | 12.22° C | 90% | 1021.2 hPa | 0 mm | - | - | - |
| 1787721717 | 12.22° C | 90% | 1021 hPa | 0 mm | - | - | - |
| 1787721117 | 12.22° C | 90% | 1021 hPa | 0 mm | - | - | - |
| 1787720516 | 12.22° C | 90% | 1021 hPa | 0 mm | - | - | - |
| 1787719916 | 12.22° C | 90% | 1021 hPa | 0 mm | - | - | - |
| 1787719316 | 12.22° C | 90% | 1020.9 hPa | 0 mm | - | - | - |
| 1787718715 | 12.22° C | 90% | 1020.9 hPa | 0 mm | - | - | - |
| 1787718115 | 12.22° C | 90% | 1020.8 hPa | 0 mm | - | - | - |
| 1787717515 | 12.22° C | 90% | 1021 hPa | 0 mm | - | - | - |
| 1787716915 | 12.22° C | 90% | 1020.7 hPa | 0 mm | - | - | - |
| 1787716314 | 11.67° C | 90% | 1020.7 hPa | 0 mm | - | - | - |
| 1787715714 | 11.67° C | 90% | 1020.7 hPa | 0 mm | - | - | - |
| 1787715114 | 11.67° C | 89% | 1020.6 hPa | 0 mm | - | - | - |
* Rain latest hour (hover to see other rain measurements)
** Current wind speed in m/s (hover to see current wind gust speed)